Overview Statistics Trail Chart Weather Telemetry Raw packets
 

This is the latest recevied weather packets stored in our database for station/object W6JCZ-13. If no packets are shown the sender has not sent any weather packets the latest 10 day(s).

<< 50 51 52 53 54 55 56 >>
Time Temp. Humidity Pressure Rain* Wind** Luminosity Snow
1787856017 32.22° C 36% 1011.9 hPa 0 mm - - -
1787855417 32.22° C 37% 1012 hPa 0 mm - - -
1787854817 31.67° C 38% 1012 hPa 0 mm - - -
1787854217 31.67° C 37% 1012 hPa 0 mm - - -
1787853617 31.11° C 37% 1012 hPa 0 mm - - -
1787853017 31.11° C 37% 1012 hPa 0 mm - - -
1787852417 30° C 37% 1012.1 hPa 0 mm - - -
1787851817 29.44° C 38% 1012 hPa 0 mm - - -
1787851217 28.89° C 38% 1011.9 hPa 0 mm - - -
1787850619 28.33° C 41% 1011.8 hPa 0 mm - - -
1787850017 27.78° C 44% 1011.8 hPa 0 mm - - -
1787849417 27.22° C 45% 1011.9 hPa 0 mm - - -
1787848817 26.67° C 46% 1011.8 hPa 0 mm - - -
1787848217 26.11° C 50% 1011.8 hPa 0 mm - - -
1787847616 25.56° C 51% 1011.7 hPa 0 mm - - -
1787847017 25° C 56% 1011.8 hPa 0 mm - - -
1787846417 23.89° C 57% 1011.8 hPa 0 mm - - -
1787845817 23.33° C 58% 1012.1 hPa 0 mm - - -
1787845217 22.78° C 62% 1012 hPa 0 mm - - -
1787844617 21.11° C 65% 1011.9 hPa 0 mm - - -
1787844017 20° C 66% 1011.9 hPa 0 mm - - -
1787843416 19.44° C 69% 1011.8 hPa 0 mm - - -
1787842816 18.89° C 70% 1011.9 hPa 0 mm - - -
1787842217 18.33° C 72% 1011.7 hPa 0 mm - - -
1787841617 17.78° C 74% 1011.7 hPa 0 mm - - -

* Rain latest hour (hover to see other rain measurements)
** Current wind speed in m/s (hover to see current wind gust speed)